FW4701 Weather Reports


Display with metric or nautical units.
time (UTC)temp
F
wind
direction
speed
MPH
gust
MPH
rain 1hr
in
rain 24hr
in
rain mn
in
humidity
%
barometer
mb
20260831053503 74 198 4.0 8.0 0.00 0.01 0.00 83 1016.3
20260831053044 82 130 1.0 5.0 0.00 0.00 0.00 40 1014.4
20260831053004 74 157 3.0 7.0 0.00 0.01 0.00 84 1016.3
20260831052504 74 192 2.0 7.0 0.00 0.01 0.00 85 1016.2
20260831052004 74 186 3.0 8.0 0.00 0.01 0.00 85 1016.2
20260831051543 82 107 3.0 5.0 0.00 0.00 0.00 39 1014.3
20260831051511 74 221 2.0 8.0 0.00 0.01 0.00 86 1016.2
20260831051003 74 184 2.0 7.0 0.00 0.01 0.00 88 1016.2
20260831050503 73 209 3.0 6.0 0.00 0.01 0.00 88 1016.2
20260831050036 82 123 2.0 3.0 0.00 0.00 0.00 38 1014.3
20260831050017 73 201 3.0 6.0 0.00 0.01 0.00 89 1016.3
20260831045508 73 204 3.0 4.0 0.00 0.01 0.01 90 1016.5
20260831045007 73 204 2.0 4.0 0.00 0.01 0.01 90 1016.6
20260831044534 82 119 1.0 3.0 0.00 0.00 0.00 37 1014.1
20260831044517 73 202 1.0 3.0 0.00 0.01 0.01 90 1016.8
20260831044009 73 116 0.0 2.0 0.00 0.01 0.01 90 1016.8
20260831043516 73 136 0.0 3.0 0.00 0.01 0.01 90 1016.9
20260831043033 83 119 1.0 4.0 0.00 0.00 0.00 37 1014.1
20260831043003 73 150 0.0 3.0 0.00 0.01 0.01 90 1016.9
20260831042504 74 130 0.0 2.0 0.00 0.01 0.01 90 1016.9
20260831042003 74 103 0.0 2.0 0.00 0.01 0.01 90 1017.0
20260831041548 83 122 2.0 3.0 0.00 0.00 0.00 36 1014.0
20260831041509 74 103 0.0 2.0 0.00 0.01 0.01 90 1017.0
20260831041004 74 99 1.0 3.0 0.00 0.01 0.01 90 1017.1
20260831040504 74 100 1.0 3.0 0.00 0.01 0.01 90 1017.1
20260831040037 84 121 1.0 3.0 0.00 0.00 0.00 35 1013.9
20260831040010 74 101 1.0 3.0 0.00 0.01 0.01 90 1017.1
20260831035503 74 96 1.0 3.0 0.00 0.01 0.01 89 1017.1
20260831035007 74 96 1.0 3.0 0.00 0.01 0.01 89 1017.2
20260831034527 84 121 0.0 2.0 0.00 0.00 0.00 34 1013.6
20260831034514 75 119 0.0 2.0 0.00 0.01 0.01 89 1017.3
20260831034010 75 107 0.0 2.0 0.00 0.01 0.01 88 1017.2
20260831033510 75 107 1.0 2.0 0.00 0.01 0.01 88 1017.1
20260831033126 85 121 0.0 2.0 0.00 0.00 0.00 34 1013.5
20260831033020 75 104 1.0 4.0 0.00 0.01 0.01 88 1017.2
20260831032512 75 98 2.0 4.0 0.00 0.01 0.01 88 1017.2
20260831032012 75 95 0.0 2.0 0.00 0.01 0.01 88 1017.1
20260831031523 85 121 0.0 1.0 0.00 0.00 0.00 32 1013.5
20260831031503 75 95 0.0 2.0 0.00 0.01 0.01 88 1017.1
20260831031003 75 126 0.0 2.0 0.00 0.01 0.01 88 1017.0
20260831030503 75 126 1.0 2.0 0.00 0.01 0.01 88 1017.0
20260831030021 87 121 0.0 2.0 0.00 0.00 0.00 30 1013.4
20260831030007 75 126 0.0 2.0 0.00 0.01 0.01 88 1017.1
20260831025503 75 126 0.0 2.0 0.00 0.01 0.01 88 1017.2
20260831025003 75 126 0.0 2.0 0.00 0.01 0.01 88 1017.2
20260831024518 88 119 2.0 5.0 0.00 0.00 0.00 30 1013.2
20260831024514 76 174 0.0 4.0 0.00 0.01 0.01 88 1017.1
20260831024008 76 174 0.0 4.0 0.00 0.01 0.01 88 1017.1
20260831023509 76 184 0.0 4.0 0.00 0.01 0.01 88 1017.1
20260831023017 76 209 1.0 4.0 0.00 0.01 0.01 88 1017.2
20260831023015 89 107 5.0 8.0 0.00 0.00 0.00 29 1013.0
20260831022511 76 184 1.0 3.0 0.00 0.01 0.01 88 1017.1
20260831022011 76 200 0.0 4.0 0.00 0.01 0.01 88 1017.0
20260831021525 76 203 1.0 6.0 0.00 0.01 0.01 88 1016.9
20260831021512 89 111 5.0 7.0 0.00 0.00 0.00 28 1012.9
20260831021012 75 187 1.0 6.0 0.00 0.01 0.01 88 1017.0
20260831020503 75 200 1.0 6.0 0.00 0.01 0.01 89 1017.0
20260831020011 90 119 4.0 7.0 0.00 0.00 0.00 27 1012.6
20260831020004 75 295 2.0 7.0 0.00 0.01 0.01 89 1016.9
20260831015506 75 202 3.0 7.0 0.00 0.01 0.01 90 1016.9
20260831015003 75 198 1.0 3.0 0.00 0.01 0.01 90 1016.9
20260831014510 91 129 5.0 7.0 0.00 0.00 0.00 26 1012.3
20260831014008 75 190 0.0 3.0 0.00 0.01 0.01 90 1016.9
20260831013507 75 192 0.0 1.0 0.00 0.01 0.01 90 1016.7
20260831013016 76 115 0.0 2.0 0.00 0.01 0.01 89 1016.5
20260831013006 92 110 5.0 9.0 0.00 0.00 0.00 25 1012.2
20260831012508 76 115 0.0 3.0 0.00 0.01 0.01 89 1016.4
20260831012011 76 115 2.0 3.0 0.00 0.01 0.01 89 1016.3
20260831011526 76 100 1.0 3.0 0.00 0.01 0.01 89 1016.5
20260831011505 93 105 6.0 10.0 0.00 0.00 0.00 24 1012.0
20260831011009 76 100 0.0 5.0 0.00 0.01 0.01 88 1016.5
20260831010512 76 59 1.0 7.0 0.00 0.01 0.01 88 1016.3
20260831010033 77 94 3.0 7.0 0.00 0.01 0.01 88 1016.3
20260831010003 94 113 7.0 11.0 0.00 0.00 0.00 24 1012.1
20260831005512 77 95 1.0 3.0 0.00 0.01 0.01 87 1016.6
20260831005004 77 115 0.0 1.0 0.00 0.01 0.01 86 1016.9
20260831004506 77 115 0.0 2.0 0.00 0.01 0.01 86 1016.8
20260831004501 95 120 7.0 10.0 0.00 0.00 0.00 22 1012.0
20260831004006 77 115 0.0 3.0 0.00 0.01 0.01 86 1016.7
20260831003506 77 115 0.0 3.0 0.00 0.01 0.01 85 1016.6
20260831003101 96 127 4.0 10.0 0.00 0.00 0.00 20 1011.9
20260831003012 78 115 1.0 3.0 0.00 0.01 0.01 84 1016.5
20260831002506 78 111 2.0 3.0 0.00 0.01 0.01 84 1016.4
20260831002007 78 119 1.0 3.0 0.00 0.01 0.01 83 1016.5
20260831001557 97 85 4.0 11.0 0.00 0.00 0.00 19 1012.0
20260831001519 78 105 0.0 3.0 0.00 0.01 0.01 83 1016.7
20260831001011 78 105 0.0 3.0 0.00 0.01 0.01 83 1016.7
20260831000510 78 110 1.0 3.0 0.00 0.01 0.01 83 1016.6
20260831000054 98 134 0.0 10.0 0.00 0.00 0.00 18 1011.9
20260831000026 79 105 1.0 3.0 0.00 0.01 0.01 83 1016.7
20260830235513 79 121 0.0 2.0 0.00 0.01 0.01 83 1016.8
20260830235016 79 124 1.0 2.0 0.00 0.01 0.01 82 1017.0
20260830234552 97 126 2.0 14.0 0.00 0.00 0.00 18 1012.0
20260830234540 79 93 0.0 0.0 0.00 0.01 0.01 82 1017.1
20260830234004 79 93 0.0 0.0 0.00 0.01 0.01 81 1017.3
20260830233503 80 93 0.0 2.0 0.00 0.01 0.01 81 1017.3
20260830233049 98 119 6.0 14.0 0.00 0.00 0.00 18 1012.0
20260830233011 80 93 0.0 2.0 0.00 0.01 0.01 81 1017.4
20260830232504 80 93 1.0 2.0 0.00 0.01 0.01 80 1017.4
20260830232011 80 93 0.0 2.0 0.00 0.01 0.01 80 1017.4
20260830231558 98 125 9.0 14.0 0.00 0.00 0.00 18 1012.0
20260830231518 80 93 0.0 2.0 0.00 0.01 0.01 80 1017.5
20260830231012 80 116 0.0 3.0 0.00 0.01 0.01 80 1017.4
20260830230511 80 107 1.0 3.0 0.00 0.01 0.01 79 1017.4
20260830230047 99 124 2.0 13.0 0.00 0.00 0.00 17 1012.0
20260830230025 80 96 1.0 3.0 0.00 0.01 0.01 79 1017.4
20260830225513 80 105 0.0 4.0 0.00 0.01 0.01 80 1017.3
20260830225011 80 360 1.0 4.0 0.00 0.01 0.01 79 1017.1
20260830224550 99 115 5.0 14.0 0.00 0.00 0.00 16 1012.2
20260830224527 80 81 1.0 3.0 0.00 0.01 0.01 79 1017.0
20260830224015 80 90 1.0 6.0 0.00 0.01 0.01 78 1016.9
20260830223514 81 90 2.0 6.0 0.00 0.01 0.01 78 1016.8
20260830223039 99 127 10.0 16.0 0.00 0.00 0.00 17 1012.2
20260830223007 81 93 2.0 3.0 0.00 0.01 0.01 77 1016.6
20260830222502 81 117 0.0 2.0 0.00 0.01 0.01 77 1016.7
20260830222009 81 109 0.0 2.0 0.00 0.01 0.01 76 1016.7
20260830221540 99 85 7.0 19.0 0.00 0.00 0.00 16 1012.1
20260830221516 82 109 0.0 2.0 0.00 0.01 0.01 76 1016.8
20260830221007 82 109 1.0 2.0 0.00 0.01 0.01 76 1017.0
20260830220508 82 139 0.0 1.0 0.00 0.01 0.01 77 1017.0
20260830220033 99 84 4.0 17.0 0.00 0.00 0.00 15 1012.2
20260830220020 82 139 0.0 2.0 0.00 0.01 0.01 76 1017.0
20260830215511 82 157 0.0 2.0 0.00 0.01 0.01 76 1017.2
20260830215014 82 278 0.0 2.0 0.00 0.01 0.01 76 1017.2
20260830214532 99 113 8.0 17.0 0.00 0.00 0.00 17 1012.3
20260830214526 82 292 0.0 2.0 0.00 0.01 0.01 76 1017.1
20260830214014 82 5 0.0 2.0 0.00 0.01 0.01 76 1017.1
20260830213502 82 70 0.0 4.0 0.00 0.01 0.01 75 1017.1
20260830213028 99 118 11.0 16.0 0.00 0.00 0.00 16 1012.5
20260830213003 82 195 1.0 5.0 0.00 0.01 0.01 75 1017.0
20260830212503 81 184 2.0 6.0 0.00 0.01 0.01 75 1016.9
20260830212003 81 197 2.0 6.0 0.00 0.01 0.01 75 1016.8
20260830211526 99 95 5.0 12.0 0.00 0.00 0.00 15 1012.6
20260830211509 81 226 2.0 7.0 0.00 0.01 0.01 75 1016.7
20260830211004 81 150 2.0 7.0 0.00 0.01 0.01 75 1016.7
20260830210503 81 173 1.0 5.0 0.00 0.01 0.01 75 1016.8
20260830210021 99 122 9.0 17.0 0.00 0.00 0.00 16 1012.7
20260830210007 81 237 2.0 7.0 0.00 0.01 0.01 76 1016.9
20260830205507 81 216 2.0 7.0 0.00 0.01 0.01 75 1016.8
20260830205004 81 196 1.0 5.0 0.00 0.01 0.01 76 1016.8
20260830204518 99 106 10.0 18.0 0.00 0.00 0.00 16 1013.0
20260830204510 80 224 1.0 6.0 0.00 0.01 0.01 76 1016.8
20260830204004 80 221 2.0 6.0 0.00 0.01 0.01 75 1016.8
20260830203504 80 204 1.0 9.0 0.00 0.01 0.01 75 1016.8
20260830203014 100 118 3.0 17.0 0.00 0.00 0.00 17 1013.2
20260830203003 80 182 3.0 9.0 0.00 0.01 0.01 75 1017.0
20260830202504 80 183 2.0 7.0 0.00 0.01 0.01 75 1017.0
20260830202004 80 183 1.0 9.0 0.00 0.01 0.01 74 1017.1
20260830201514 101 232 2.0 7.0 0.00 0.00 0.00 16 1013.3
20260830201507 80 330 1.0 9.0 0.00 0.01 0.01 74 1017.1
20260830201005 80 210 4.0 9.0 0.00 0.01 0.01 73 1017.1
20260830200505 80 185 2.0 9.0 0.00 0.01 0.01 73 1017.2
20260830200009 100 174 1.0 13.0 0.00 0.00 0.00 17 1013.6
20260830195503 81 207 4.0 14.0 0.00 0.01 0.01 71 1017.3
20260830195003 81 199 6.0 16.0 0.00 0.01 0.01 71 1017.3
20260830194509 81 237 5.0 16.0 0.00 0.01 0.01 71 1017.2
20260830194505 99 128 3.0 16.0 0.00 0.00 0.00 16 1013.7
20260830194004 81 206 7.0 18.0 0.00 0.01 0.01 71 1017.1
20260830193503 81 263 7.0 18.0 0.00 0.01 0.01 71 1017.1
20260830193009 100 96 9.0 15.0 0.00 0.00 0.00 16 1013.9
20260830193007 81 165 2.0 14.0 0.00 0.01 0.01 74 1017.1
20260830192503 80 283 6.0 14.0 0.00 0.01 0.01 73 1017.0
20260830192002 80 194 4.0 16.0 0.00 0.01 0.01 72 1016.9
20260830191600 101 179 4.0 16.0 0.00 0.00 0.00 16 1014.1
20260830191504 80 193 7.0 17.0 0.00 0.01 0.01 72 1017.0
20260830191003 80 207 7.0 17.0 0.00 0.01 0.01 72 1016.9
20260830190503 80 166 3.0 15.0 0.00 0.01 0.01 74 1016.9
20260830190057 102 172 0.0 4.0 0.00 0.00 0.00 17 1014.3
20260830190010 80 227 5.0 17.0 0.00 0.01 0.01 73 1016.9
20260830185504 80 242 4.0 17.0 0.00 0.01 0.01 73 1017.0
20260830185003 80 175 5.0 14.0 0.00 0.01 0.01 73 1016.8
20260830184551 100 327 0.0 7.0 0.00 0.00 0.00 16 1014.5
20260830184517 80 155 7.0 14.0 0.00 0.01 0.01 73 1016.8
20260830184004 80 156 5.0 19.0 0.00 0.01 0.01 74 1016.8
20260830183503 80 193 7.0 19.0 0.00 0.01 0.01 74 1016.9
20260830183051 99 133 1.0 9.0 0.00 0.00 0.00 20 1014.6
20260830183008 79 204 7.0 16.0 0.00 0.01 0.01 75 1017.0
20260830182505 79 184 6.0 15.0 0.00 0.01 0.01 75 1016.9
20260830182003 78 176 5.0 15.0 0.00 0.01 0.01 76 1017.0
20260830181545 100 158 3.0 10.0 0.00 0.00 0.00 19 1014.9
20260830181510 78 196 6.0 12.0 0.00 0.01 0.01 76 1016.9
20260830181004 78 166 4.0 14.0 0.00 0.01 0.01 77 1017.0
20260830180504 78 184 6.0 16.0 0.00 0.01 0.01 76 1017.1
20260830180053 98 150 1.0 9.0 0.00 0.00 0.00 20 1015.2
20260830180014 78 190 5.0 20.0 0.00 0.01 0.01 77 1017.1
20260830175503 78 210 5.0 20.0 0.00 0.01 0.01 77 1017.0
20260830175006 78 175 4.0 12.0 0.00 0.01 0.01 76 1017.1
20260830174538 97 96 1.0 15.0 0.00 0.00 0.00 23 1015.5
20260830174511 78 244 6.0 14.0 0.00 0.01 0.01 76 1017.2
20260830174004 78 244 5.0 14.0 0.00 0.01 0.01 75 1017.5
20260830173505 78 191 3.0 14.0 0.00 0.01 0.01 75 1017.4
20260830173051 97 144 8.0 14.0 0.00 0.00 0.00 23 1015.6
20260830173010 78 140 4.0 15.0 0.00 0.01 0.01 77 1017.4
20260830172504 77 190 6.0 15.0 0.00 0.01 0.01 79 1017.6
20260830172006 77 182 4.0 12.0 0.00 0.01 0.01 79 1017.7
20260830171533 97 196 0.0 6.0 0.00 0.00 0.00 24 1016.0
20260830171512 76 194 6.0 14.0 0.00 0.01 0.01 80 1017.7
20260830171004 76 170 5.0 14.0 0.00 0.01 0.01 80 1017.8
20260830170504 75 194 6.0 16.0 0.00 0.01 0.01 79 1017.9
20260830170028 98 100 1.0 6.0 0.00 0.00 0.00 24 1016.1
20260830170012 75 222 6.0 16.0 0.00 0.01 0.01 80 1018.0
20260830165504 75 194 5.0 14.0 0.00 0.01 0.01 80 1017.9
20260830165004 75 191 5.0 14.0 0.00 0.01 0.01 80 1018.1
20260830164533 75 196 4.0 11.0 0.00 0.01 0.01 81 1018.1
20260830164524 96 162 0.0 7.0 0.00 0.00 0.00 26 1016.4
20260830164007 74 228 5.0 12.0 0.00 0.01 0.01 81 1018.1
20260830163504 74 186 6.0 12.0 0.00 0.01 0.01 80 1018.0
20260830163023 96 110 2.0 11.0 0.00 0.00 0.00 28 1016.5
20260830163012 74 178 5.0 11.0 0.00 0.01 0.01 81 1017.9
20260830162506 74 254 6.0 12.0 0.00 0.01 0.01 82 1017.9
20260830162007 73 249 3.0 12.0 0.00 0.01 0.01 85 1017.7
20260830161519 97 141 1.0 4.0 0.00 0.00 0.00 28 1016.5
20260830161512 73 171 4.0 11.0 0.00 0.01 0.01 87 1017.6
20260830161006 72 205 2.0 9.0 0.00 0.01 0.01 87 1017.4
20260830160505 71 222 4.0 9.0 0.00 0.01 0.01 88 1017.3
20260830160014 97 106 0.0 2.0 0.00 0.00 0.00 29 1016.5
20260830160012 71 211 4.0 9.0 0.00 0.01 0.01 88 1017.3
20260830155511 71 174 3.0 9.0 0.00 0.01 0.01 89 1017.1
20260830155005 70 231 3.0 8.0 0.00 0.01 0.01 89 1017.3
20260830154512 70 180 2.0 6.0 0.00 0.01 0.01 89 1017.6
20260830154508 95 198 0.0 3.0 0.00 0.00 0.00 30 1016.7
20260830154005 70 167 2.0 7.0 0.00 0.01 0.01 90 1017.7
20260830153506 70 182 1.0 7.0 0.00 0.01 0.01 90 1017.9
20260830153017 69 215 2.0 6.0 0.00 0.01 0.01 90 1018.1
20260830153004 95 152 0.0 3.0 0.00 0.00 0.00 31 1016.6
20260830152507 69 139 1.0 5.0 0.01 0.01 0.01 90 1018.0
20260830152007 69 198 1.0 5.0 0.01 0.01 0.01 90 1018.2
20260830151515 69 74 0.0 4.0 0.01 0.01 0.01 91 1018.2
20260830151502 94 214 0.0 3.0 0.00 0.00 0.00 32 1016.6
20260830151008 69 136 1.0 4.0 0.01 0.01 0.01 91 1018.1
20260830150508 69 159 0.0 6.0 0.01 0.01 0.01 91 1018.2
20260830150058 94 172 0.0 1.0 0.00 0.00 0.00 33 1016.6
20260830150018 69 287 0.0 6.0 0.01 0.01 0.01 91 1018.1
20260830145508 69 115 1.0 5.0 0.01 0.01 0.01 91 1018.2
20260830145008 69 113 1.0 4.0 0.01 0.01 0.01 91 1018.3
20260830144551 93 212 0.0 1.0 0.00 0.00 0.00 34 1016.5
20260830144515 69 223 0.0 4.0 0.01 0.01 0.01 91 1018.2
20260830144007 69 165 1.0 4.0 0.01 0.01 0.01 91 1018.3
20260830143506 69 186 0.0 3.0 0.01 0.01 0.01 90 1018.3
20260830143047 92 207 0.0 1.0 0.00 0.00 0.00 37 1016.5
20260830143013 69 155 0.0 2.0 0.01 0.01 0.01 90 1018.5
20260830142509 69 127 0.0 2.0 0.00 0.00 0.00 89 1018.6
20260830142008 69 105 0.0 2.0 0.00 0.00 0.00 89 1018.7
20260830141552 93 201 0.0 1.0 0.00 0.00 0.00 38 1016.5
20260830141517 69 132 0.0 3.0 0.00 0.00 0.00 88 1018.7
20260830141010 69 149 0.0 4.0 0.00 0.00 0.00 88 1018.8
20260830140512 69 172 1.0 4.0 0.00 0.00 0.00 87 1018.9
20260830140045 91 219 0.0 1.0 0.00 0.00 0.00 42 1016.4
20260830140016 69 210 1.0 4.0 0.00 0.00 0.00 87 1019.0
20260830135509 69 157 0.0 2.0 0.00 0.00 0.00 87 1018.9
20260830135011 69 196 0.0 2.0 0.00 0.00 0.00 87 1019.2
20260830134533 89 219 0.0 1.0 0.00 0.00 0.00 44 1016.4
20260830134522 69 209 0.0 1.0 0.00 0.00 0.00 87 1019.2
20260830134008 69 209 0.0 1.0 0.00 0.00 0.00 87 1019.1
20260830133509 69 209 0.0 2.0 0.00 0.00 0.00 87 1018.8
20260830133026 87 120 0.0 1.0 0.00 0.00 0.00 48 1016.3
20260830133023 69 209 0.0 5.0 0.00 0.00 0.00 86 1018.7
20260830132509 69 148 0.0 5.0 0.00 0.00 0.00 86 1018.6
20260830132005 69 161 1.0 4.0 0.00 0.00 0.00 86 1018.8
20260830131524 69 188 0.0 3.0 0.00 0.00 0.00 86 1018.7
20260830131522 85 119 0.0 1.0 0.00 0.00 0.00 49 1016.1
20260830131008 69 159 1.0 4.0 0.00 0.00 0.00 87 1018.8
20260830130513 69 159 2.0 4.0 0.00 0.00 0.00 86 1018.9
20260830130020 83 119 0.0 0.0 0.00 0.00 0.00 54 1015.9
20260830130016 69 180 1.0 4.0 0.00 0.00 0.00 86 1019.0
20260830125511 69 211 0.0 5.0 0.00 0.00 0.00 86 1018.9
20260830125010 69 205 1.0 8.0 0.00 0.00 0.00 86 1018.7
20260830124517 69 223 3.0 8.0 0.00 0.00 0.00 86 1018.5
20260830124509 0 0.0 0.0 0.00 0.00 0.00 1015.7
20260830124008 69 179 2.0 7.0 0.00 0.00 0.00 86 1018.4
20260830123512 69 194 2.0 7.0 0.00 0.00 0.00 86 1018.4
20260830123017 69 184 2.0 7.0 0.00 0.00 0.00 87 1018.3
20260830123012 0 0.0 0.0 0.00 0.00 0.00 1015.6
20260830122512 69 196 4.0 7.0 0.00 0.00 0.00 87 1018.3
20260830122010 69 178 1.0 6.0 0.00 0.00 0.00 87 1018.2
20260830121601 0 0.0 0.0 0.00 0.00 0.00 1015.4
20260830121522 69 217 3.0 7.0 0.00 0.00 0.00 87 1018.0
20260830121009 68 219 3.0 7.0 0.00 0.00 0.00 87 1017.9
20260830120507 68 171 3.0 7.0 0.00 0.00 0.00 88 1017.8
20260830120057 0 0.0 0.0 0.00 0.00 0.00 1015.2
20260830120019 68 221 2.0 7.0 0.00 0.00 0.00 87 1017.8
20260830115510 68 205 4.0 7.0 0.00 0.00 0.00 88 1017.7
20260830115015 68 205 2.0 6.0 0.00 0.00 0.00 88 1017.6
20260830114557 0 0.0 0.0 0.00 0.00 0.00 1015.2
20260830114520 68 221 2.0 6.0 0.00 0.00 0.00 88 1017.6
20260830114013 68 206 2.0 6.0 0.00 0.00 0.00 88 1017.5
20260830113509 68 200 2.0 11.0 0.00 0.00 0.00 88 1017.4
20260830113044 0 0.0 0.0 0.00 0.00 0.00 1015.0
20260830113021 68 226 2.0 11.0 0.00 0.00 0.00 88 1017.4
20260830112510 68 199 3.0 6.0 0.00 0.00 0.00 87 1017.2
20260830112012 68 169 3.0 6.0 0.00 0.00 0.00 87 1017.3
20260830111641 0 0.0 0.0 0.00 0.00 0.00 1015.0
20260830111520 69 219 2.0 9.0 0.00 0.00 0.00 86 1017.3
20260830111012 69 192 3.0 9.0 0.00 0.00 0.00 86 1017.2
20260830110512 69 182 2.0 6.0 0.00 0.00 0.00 86 1017.3
20260830110036 0 0.0 0.0 0.00 0.00 0.00 1014.9
20260830110020 69 192 2.0 6.0 0.00 0.00 0.00 85 1017.3
20260830105510 69 198 2.0 9.0 0.00 0.00 0.00 85 1017.3
20260830105009 69 257 3.0 9.0 0.00 0.00 0.00 85 1017.1
20260830104533 0 121 0.0 1.0 0.00 0.00 0.00 1014.9
20260830104521 68 187 3.0 7.0 0.00 0.00 0.00 85 1017.0
20260830104011 68 235 3.0 6.0 0.00 0.00 0.00 85 1016.9
20260830103512 68 226 2.0 6.0 0.00 0.00 0.00 85 1017.0
20260830103029 78 122 0.0 0.0 0.00 0.00 0.00 57 1014.8
20260830103027 68 178 3.0 6.0 0.00 0.00 0.00 85 1017.0
20260830102511 68 180 1.0 7.0 0.00 0.00 0.00 84 1017.1
20260830102010 69 215 2.0 7.0 0.00 0.00 0.00 84 1017.1
20260830101522 69 178 2.0 9.0 0.00 0.00 0.00 84 1017.0
20260830101520 79 122 0.0 3.0 0.00 0.00 0.00 56 1014.8
20260830101013 69 200 2.0 9.0 0.00 0.00 0.00 84 1017.0
20260830100512 69 248 2.0 6.0 0.00 0.00 0.00 84 1017.0
20260830100026 69 198 1.0 7.0 0.00 0.00 0.00 83 1017.0
20260830100018 79 107 0.0 4.0 0.00 0.00 0.00 55 1014.8
20260830095516 69 134 2.0 8.0 0.00 0.00 0.00 83 1016.9
20260830095014 69 182 3.0 8.0 0.00 0.00 0.00 83 1017.0
20260830094519 69 182 3.0 8.0 0.00 0.00 0.00 83 1017.0
20260830094515 80 122 3.0 5.0 0.00 0.00 0.00 54 1014.8
20260830094012 69 200 3.0 7.0 0.00 0.00 0.00 83 1017.0
20260830093512 69 196 2.0 8.0 0.00 0.00 0.00 83 1016.9
20260830093024 69 198 4.0 8.0 0.00 0.00 0.00 82 1016.9
20260830093010 80 115 2.0 4.0 0.00 0.00 0.00 53 1014.8
20260830092514 69 241 3.0 9.0 0.00 0.00 0.00 82 1017.1
20260830092014 69 227 4.0 11.0 0.00 0.00 0.00 82 1017.1
20260830091524 69 182 3.0 11.0 0.00 0.00 0.00 82 1017.1
20260830091508 80 108 2.0 5.0 0.00 0.00 0.00 53 1014.8
20260830091012 69 169 3.0 11.0 0.00 0.00 0.00 81 1017.0
20260830090512 69 189 3.0 8.0 0.00 0.00 0.00 81 1017.0
20260830090026 69 193 3.0 9.0 0.00 0.00 0.00 81 1017.1
20260830090005 81 117 0.0 2.0 0.00 0.00 0.00 52 1014.8
20260830085515 69 230 3.0 9.0 0.00 0.00 0.00 81 1017.1
20260830085016 69 227 3.0 8.0 0.00 0.00 0.00 80 1017.2
20260830084528 70 204 3.0 14.0 0.00 0.00 0.00 80 1017.2
20260830084502 81 115 1.0 6.0 0.00 0.00 0.00 51 1014.8
20260830084014 70 211 4.0 14.0 0.00 0.00 0.00 80 1017.1
20260830083517 70 194 3.0 12.0 0.00 0.00 0.00 80 1017.2
20260830083139 81 134 0.0 5.0 0.00 0.00 0.00 51 1014.7
20260830083023 70 216 6.0 12.0 0.00 0.00 0.00 79 1017.2
20260830082512 70 191 5.0 15.0 0.00 0.00 0.00 79 1017.1
20260830082011 70 238 7.0 15.0 0.00 0.00 0.00 79 1017.0
20260830081558 81 127 0.0 4.0 0.00 0.00 0.00 50 1014.6
20260830081525 70 242 5.0 11.0 0.00 0.00 0.00 79 1016.9
20260830081014 70 215 4.0 12.0 0.00 0.00 0.00 78 1016.9
20260830080504 70 157 6.0 14.0 0.00 0.00 0.00 78 1016.8
20260830080053 82 120 0.0 4.0 0.00 0.00 0.00 50 1014.7
20260830080006 70 200 6.0 14.0 0.00 0.00 0.00 77 1016.9
20260830075503 70 202 5.0 12.0 0.00 0.00 0.00 77 1017.0
20260830075004 71 165 4.0 15.0 0.00 0.00 0.00 77 1017.0
20260830074551 82 119 2.0 4.0 0.00 0.00 0.00 49 1014.8
20260830074514 71 222 5.0 17.0 0.00 0.00 0.00 77 1017.0
20260830074005 70 235 5.0 17.0 0.00 0.00 0.00 77 1017.0
20260830073510 70 147 5.0 13.0 0.00 0.00 0.00 77 1017.0
20260830073106 82 120 1.0 4.0 0.00 0.00 0.00 47 1014.7
20260830073024 70 240 6.0 13.0 0.00 0.00 0.00 76 1017.1
20260830072511 70 206 4.0 10.0 0.00 0.00 0.00 76 1017.0
20260830072011 70 176 3.0 13.0 0.00 0.00 0.00 76 1017.1
20260830071547 82 117 0.0 5.0 0.00 0.00 0.00 46 1014.8
20260830071534 70 187 4.0 13.0 0.00 0.00 0.00 76 1017.2
20260830071013 70 237 3.0 10.0 0.00 0.00 0.00 76 1017.2
20260830070503 70 165 6.0 13.0 0.00 0.00 0.00 76 1017.4
20260830070041 82 108 0.0 4.0 0.00 0.00 0.00 46 1014.8
20260830070006 70 221 4.0 13.0 0.00 0.00 0.00 76 1017.4
20260830065505 70 188 3.0 10.0 0.00 0.00 0.00 76 1017.4
20260830065004 70 190 2.0 10.0 0.00 0.00 0.00 76 1017.4
20260830064540 82 122 0.0 1.0 0.00 0.00 0.00 46 1014.9
20260830064508 70 157 3.0 11.0 0.00 0.00 0.00 76 1017.5
20260830064004 70 198 3.0 13.0 0.00 0.00 0.00 76 1017.5
20260830063509 70 241 4.0 13.0 0.00 0.00 0.00 76 1017.6
20260830063040 82 122 0.0 3.0 0.00 0.00 0.00 45 1015.0
20260830063018 70 205 4.0 11.0 0.00 0.00 0.00 77 1017.5
20260830062509 70 187 5.0 11.0 0.00 0.00 0.00 77 1017.5
20260830062011 70 209 4.0 9.0 0.00 0.00 0.00 78 1017.5
20260830061538 82 127 0.0 1.0 0.00 0.00 0.00 43 1014.9
20260830061522 70 162 3.0 9.0 0.00 0.00 0.00 78 1017.5
20260830061011 70 188 3.0 7.0 0.00 0.00 0.00 78 1017.5
20260830060515 70 227 3.0 11.0 0.00 0.00 0.00 78 1017.5
20260830060031 82 125 0.0 3.0 0.00 0.00 0.00 42 1014.8
20260830060029 70 186 3.0 11.0 0.00 0.00 0.00 78 1017.6
20260830055514 70 238 3.0 9.0 0.00 0.00 0.00 78 1017.6
20260830055004 70 169 3.0 8.0 0.00 0.00 0.00 78 1017.7
20260830054528 82 122 2.0 3.0 0.00 0.00 0.00 41 1014.7
20260830054507 70 177 3.0 8.0 0.00 0.00 0.00 78 1017.7
20260830054005 70 165 1.0 7.0 0.00 0.00 0.00 78 1017.8